EW0150 Weather Reports


time (UTC)temp
C
wind
direction
speed
KPH
gust
KPH
rain 1hr
cm
rain 24hr
cm
rain mn
cm
humidity
%
barometer
mb
20260504151006 25 196 14.5 27.4 0.00 0.00 0.00 36 1012.4
20260504141004 25 172 16.1 32.2 0.00 0.00 0.00 34 1012.5
20260504082005 21 207 14.5 25.7 0.00 0.00 0.00 37 1015.4
20260504050008 12 186 11.3 19.3 0.00 0.00 0.00 58 1015.4
20260504045005 11 165 8.0 12.9 0.00 0.00 0.00 61 1015.5
20260504044004 11 163 6.4 8.0 0.00 0.00 0.00 63 1015.6
20260504043005 10 170 4.8 6.4 0.00 0.00 0.00 64 1015.6
20260504042005 10 170 4.8 8.0 0.00 0.00 0.00 63 1015.5
20260504035004 8 183 3.2 6.4 0.00 0.00 0.00 69 1015.4
20260504034005 7 201 3.2 4.8 0.00 0.00 0.00 71 1015.3
20260504033004 7 201 4.8 8.0 0.00 0.00 0.00 72 1015.3
20260504031007 7 234 3.2 6.4 0.00 0.00 0.00 69 1015.3
20260504030008 6 150 1.6 4.8 0.00 0.00 0.00 71 1015.3
20260504023006 8 150 4.8 8.0 0.00 0.00 0.00 64 1014.9
20260504022006 8 160 4.8 8.0 0.00 0.00 0.00 64 1015.0
20260504021007 8 160 3.2 6.4 0.00 0.00 0.00 65 1015.0
20260504020012 8 160 3.2 3.2 0.00 0.00 0.00 65 1015.0
20260504015010 8 160 3.2 3.2 0.00 0.00 0.00 66 1015.0
20260504014009 8 160 4.8 8.0 0.00 0.00 0.00 66 1014.9
20260504013007 9 160 3.2 4.8 0.00 0.00 0.00 63 1014.9
20260504012006 10 160 6.4 8.0 0.00 0.00 0.00 58 1015.0
20260504011007 11 160 4.8 8.0 0.00 0.00 0.00 57 1015.0
20260504010009 10 160 4.8 6.4 0.00 0.00 0.00 59 1015.0
20260504005006 10 160 3.2 4.8 0.00 0.00 0.00 60 1015.0
20260504003007 10 160 1.6 3.2 0.00 0.00 0.00 61 1015.0
20260504001010 9 160 1.6 3.2 0.00 0.00 0.00 61 1015.1
20260504000011 10 160 1.6 3.2 0.00 0.00 0.00 60 1015.2
20260503235009 10 160 1.6 3.2 0.00 0.00 0.00 59 1015.2
20260503234006 11 160 3.2 8.0 0.00 0.00 0.00 57 1015.2
20260503233006 12 160 4.8 9.7 0.00 0.00 0.00 52 1015.3
20260503231005 12 157 6.4 11.3 0.00 0.00 0.00 52 1015.3
20260503230008 12 173 3.2 8.0 0.00 0.00 0.00 54 1015.4
20260503225007 12 173 0.0 1.6 0.00 0.00 0.00 53 1015.4
20260503224004 12 173 1.6 4.8 0.00 0.00 0.00 51 1015.5
20260503223004 13 173 3.2 12.9 0.00 0.00 0.00 48 1015.4
20260503222003 14 176 6.4 11.3 0.00 0.00 0.00 47 1015.5
20260503221004 14 180 8.0 12.9 0.00 0.00 0.00 46 1015.6
20260503220013 14 184 8.0 11.3 0.00 0.00 0.00 45 1015.6
20260503212006 16 199 8.0 12.9 0.00 0.00 0.00 42 1015.7
20260503211005 16 217 9.7 16.1 0.00 0.00 0.00 41 1015.8
20260503205006 17 248 12.9 22.5 0.00 0.00 0.00 39 1015.8
20260503202004 16 180 11.3 22.5 0.00 0.00 0.00 39 1015.7
20260503201005 16 224 9.7 16.1 0.00 0.00 0.00 40 1015.7
20260503200011 16 220 8.0 17.7 0.00 0.00 0.00 40 1015.7
20260503194005 16 240 8.0 16.1 0.00 0.00 0.00 43 1015.8
20260503193007 16 219 4.8 9.7 0.00 0.00 0.00 45 1015.7
20260503192005 17 217 4.8 11.3 0.00 0.00 0.00 45 1015.7
20260503191006 17 221 4.8 8.0 0.00 0.00 0.00 46 1015.7
20260503190010 17 215 3.2 6.4 0.00 0.00 0.00 46 1015.6
20260503185004 17 215 4.8 8.0 0.00 0.00 0.00 45 1015.5
20260503182007 18 210 4.8 8.0 0.00 0.00 0.00 42 1015.2
20260503181008 19 216 6.4 9.7 0.00 0.00 0.00 42 1015.2
20260503175005 20 246 6.4 11.3 0.00 0.00 0.00 40 1015.2
20260503174005 21 230 6.4 9.7 0.00 0.00 0.00 39 1015.0
20260503172008 21 248 8.0 12.9 0.00 0.00 0.00 36 1015.0
20260503171005 22 216 11.3 19.3 0.00 0.00 0.00 34 1015.0